Location: Unspecified
(0.0000°N, 0.0000°E)
Time: 09:29:35
(UTC+00:00)

O/OREOS (USA 219) - Pass Details

Date: 19 May 2021
Orbit: 621 x 646 km, 72.0° (Epoch: 22 May)

Event Time Altitude Azimuth Distance (km) Brightness Sun altitude
Exits shadow 04:11:46 15° 161° (SSE) 1,663 ? -24.5°
Maximum altitude 04:14:46 32° 105° (ESE) 1,071 ? -23.8°
Drops below altitude 10° 04:18:44 10° 41° (NE) 1,980 ? -22.9°
Sets 04:21:09 0° 31° (NNE) 2,884 ? -22.3°
